Weather History for Pittsburg, KS

Change the Weather History Date:

Tuesday, August 26, 2014

  Actual Average (KJLN) Record (KJLN)
Temperature  
Mean Temperature 85 °F 78 °F  
Max Temperature 99 °F 90 °F 101 °F (1983)
Min Temperature 71 °F 67 °F 51 °F (1962)
Degree Days  
Heating Degree Days 0 0  
Month to date heating degree days 0  
Since 1 June heating degree days 5  
Since 1 July heating degree days 0  
Cooling Degree Days 20 13  
Month to date cooling degree days 395  
Year to date cooling degree days 1366  
Since 1 June cooling degree days 1186  
Growing Degree Days 35 (Base 50)    
Moisture  
Dew Point 69 °F    
Average Humidity 63    
Maximum Humidity 95    
Minimum Humidity 35    
Precipitation  
Precipitation 0.07 in 0.13 in 3.16 in (1950)
Month to date precipitation 2.73  
Year to date precipitation 30.35  
Sea Level Pressure  
Sea Level Pressure 30.06 in    
Wind  
Wind Speed 3 mph (SSE)    
Max Wind Speed 15 mph    
Max Gust Speed 18 mph    
Visibility 10 miles    
Events Rain , Thunderstorm    
T = Trace of Precipitation, MM = Missing Value Source: NWS Daily Summary

Daily Weather History Graph

Daily Weather History Graph

Search for Another Location

Airport:

Trip Planner

Search our weather history database for the weather conditions in past years. The results will help you decide how hot, cold, wet, or windy it might be!

Date:

Astronomy

Aug. 26, 2014 Rise Set
Actual Time 6:44 AM CDT 7:56 PM CDT
Civil Twilight 6:17 AM CDT 8:23 PM CDT
Nautical Twilight 5:44 AM CDT 8:55 PM CDT
Astronomical Twilight 5:11 AM CDT 9:29 PM CDT
Moon 7:43 AM CDT (8/26) 8:20 PM CDT (8/26)
Length of Visible Light 14h 06m
Length of Day
13h 12m
New Moon, 1% of the Moon is Illuminated
Aug 26
New Moon
Sep 2
First Quarter
Sep 8
Full
Sep 15
Last Quarter
Sep 24
New

Hourly Weather History & Observations

Time (CDT) Temp. Heat Index Dew Point Humidity Pressure Visibility Wind Dir Wind Speed Gust Speed Precip Events Conditions
12:15 AM 76.1 °F - 70.7 °F 83% 30.02 in 10.0 mi Calm Calm - N/A   Clear
12:35 AM 76.1 °F - 70.3 °F 82% 30.02 in 10.0 mi SSW 3.5 mph - N/A   Clear
12:55 AM 77.9 °F - 68.4 °F 72% 30.02 in 10.0 mi South 4.6 mph - N/A   Clear
1:15 AM 78.8 °F - 68.2 °F 70% 30.02 in 10.0 mi South 3.5 mph - N/A   Clear
1:35 AM 77.2 °F - 68.2 °F 74% 30.02 in 10.0 mi Calm Calm - N/A   Clear
1:55 AM 76.1 °F - 69.8 °F 81% 30.02 in 10.0 mi Calm Calm - N/A   Clear
2:15 AM 76.3 °F - 68.7 °F 77% 30.01 in 10.0 mi South 5.8 mph - N/A   Clear
2:35 AM 77.4 °F - 69.4 °F 76% 30.02 in 10.0 mi South 8.1 mph - N/A   Clear
2:55 AM 78.8 °F - 69.1 °F 72% 30.02 in 10.0 mi SSW 4.6 mph - N/A   Clear
3:15 AM 78.6 °F - 68.7 °F 72% 30.02 in 10.0 mi South 3.5 mph - N/A   Clear
3:35 AM 76.6 °F - 68.4 °F 75% 30.02 in 10.0 mi Calm Calm - N/A   Clear
3:55 AM 76.1 °F - 69.1 °F 79% 30.03 in 10.0 mi SSW 3.5 mph - N/A   Clear
4:15 AM 76.1 °F - 68.9 °F 78% 30.04 in 10.0 mi Calm Calm - N/A   Clear
4:35 AM 76.1 °F - 71.4 °F 85% 30.03 in 10.0 mi Calm Calm - N/A   Clear
4:55 AM 76.1 °F - 71.6 °F 86% 30.04 in 10.0 mi South 3.5 mph - N/A   Clear
5:15 AM 75.6 °F - 70.9 °F 85% 30.05 in 10.0 mi Calm Calm - N/A   Clear
5:35 AM 73.4 °F - 70.3 °F 90% 30.06 in 10.0 mi Calm Calm - N/A   Clear
5:55 AM 73.2 °F - 70.5 °F 91% 30.08 in 10.0 mi NNW 4.6 mph - N/A   Clear
6:15 AM 73.4 °F - 70.7 °F 91% 30.08 in 10.0 mi Calm Calm - N/A   Clear
6:35 AM 71.6 °F - 70.0 °F 95% 30.09 in 10.0 mi NNW 9.2 mph - N/A   Clear
6:55 AM 73.4 °F - 71.4 °F 93% 30.11 in 10.0 mi Calm Calm - N/A   Clear
7:15 AM 74.5 °F - 72.1 °F 92% 30.10 in 10.0 mi Calm Calm - N/A   Clear
7:35 AM 75.7 °F - 73.4 °F 92% 30.10 in 10.0 mi Calm Calm - N/A   Clear
7:55 AM 76.1 °F - 73.0 °F 90% 30.10 in 10.0 mi Calm Calm - N/A   Clear
8:15 AM 76.8 °F - 72.7 °F 87% 30.09 in 10.0 mi SSE 6.9 mph - N/A   Clear
8:55 AM 81.1 °F 85.0 °F 71.1 °F 71% 30.09 in 10.0 mi Calm Calm - N/A   Clear
9:55 AM 84.9 °F 89.1 °F 69.6 °F 60% 30.10 in 10.0 mi Calm Calm - N/A   Clear
10:15 AM 85.8 °F 90.1 °F 69.4 °F 58% 30.11 in 10.0 mi Calm Calm - N/A   Clear
10:35 AM 88.3 °F 94.5 °F 71.2 °F 57% 30.11 in 10.0 mi Calm Calm - N/A   Clear
10:55 AM 90.9 °F 99.4 °F 73.2 °F 56% 30.12 in 10.0 mi Calm Calm - N/A   Clear
11:15 AM 91.4 °F 98.9 °F 72.3 °F 53% 30.12 in 10.0 mi Calm Calm - N/A   Clear
11:35 AM 91.4 °F 98.4 °F 71.4 °F 52% 30.12 in 10.0 mi NE 3.5 mph - N/A   Clear
11:55 AM 91.4 °F 97.8 °F 71.1 °F 51% 30.11 in 10.0 mi Calm Calm - N/A   Clear
12:15 PM 91.4 °F 97.3 °F 70.2 °F 50% 30.11 in 10.0 mi NNE 3.5 mph - N/A   Clear
12:35 PM 92.8 °F 99.7 °F 70.9 °F 49% 30.10 in 10.0 mi Calm Calm - N/A   Clear
12:55 PM 94.3 °F 101.0 °F 70.9 °F 46% 30.10 in 10.0 mi NNW 3.5 mph - N/A   Clear
1:15 PM 94.1 °F 100.0 °F 69.6 °F 45% 30.09 in 10.0 mi NNW 4.6 mph - N/A   Scattered Clouds
1:35 PM 95.2 °F 101.7 °F 70.0 °F 44% 30.08 in 10.0 mi NNW 3.5 mph - N/A   Clear
1:55 PM 96.4 °F 103.0 °F 69.6 °F 42% 30.08 in 10.0 mi Calm Calm - N/A   Clear
2:15 PM 96.4 °F 101.1 °F 67.8 °F 39% 30.07 in 10.0 mi Calm Calm - N/A   Clear
2:35 PM 96.4 °F 101.1 °F 67.5 °F 39% 30.07 in 10.0 mi ESE 3.5 mph - N/A   Clear
2:55 PM 96.4 °F 100.6 °F 67.1 °F 38% 30.06 in 10.0 mi Calm Calm - N/A   Clear
3:15 PM 97.0 °F 101.0 °F 66.7 °F 37% 30.05 in 10.0 mi West 4.6 mph - N/A   Scattered Clouds
3:35 PM 96.4 °F 100.0 °F 66.4 °F 37% 30.04 in 10.0 mi ESE 5.8 mph - N/A   Scattered Clouds
3:55 PM 96.4 °F 100.0 °F 66.6 °F 37% 30.03 in 10.0 mi Calm Calm - N/A   Clear
4:15 PM 96.6 °F 99.8 °F 65.3 °F 36% 30.02 in 10.0 mi Calm Calm - N/A   Clear
4:35 PM 96.8 °F 99.5 °F 64.8 °F 35% 30.01 in 10.0 mi West 3.5 mph - N/A   Clear
4:55 PM 97.7 °F 101.2 °F 65.5 °F 35% 30.00 in 10.0 mi SE 3.5 mph - N/A   Clear
5:15 PM 98.4 °F 102.5 °F 66.2 °F 35% 30.00 in 10.0 mi Calm Calm - N/A   Clear
5:35 PM 99.0 °F 103.5 °F 66.9 °F 35% 29.99 in 10.0 mi Calm Calm - N/A   Clear
5:55 PM 97.7 °F 101.7 °F 66.4 °F 36% 29.99 in 10.0 mi NNE 4.6 mph - N/A   Clear
6:15 PM 96.4 °F 100.6 °F 67.1 °F 38% 29.99 in 10.0 mi East 4.6 mph - N/A   Clear
6:35 PM 96.4 °F 100.6 °F 67.3 °F 38% 30.00 in 10.0 mi Calm Calm - N/A   Clear
6:55 PM 96.4 °F 102.4 °F 68.9 °F 41% 30.00 in 10.0 mi ENE 3.5 mph - N/A   Scattered Clouds
7:15 PM 94.5 °F 100.2 °F 69.3 °F 44% 30.01 in 10.0 mi NE 4.6 mph - N/A   Clear
7:35 PM 91.4 °F 96.3 °F 69.1 °F 48% 30.02 in 10.0 mi East 8.1 mph - N/A   Scattered Clouds
7:55 PM 91.4 °F 95.4 °F 67.8 °F 46% 30.04 in 10.0 mi South 8.1 mph - N/A Thunderstorm Thunderstorm
8:15 PM 86.2 °F 88.4 °F 66.2 °F 51% 30.07 in 10.0 mi SSW 4.6 mph - N/A Rain , Thunderstorm Light Thunderstorms and Rain
8:35 PM 80.6 °F 83.2 °F 67.8 °F 65% 30.07 in 5.0 mi ESE 6.9 mph - 0.04 in Rain , Thunderstorm Heavy Thunderstorms and Rain
8:55 PM 78.8 °F - 70.3 °F 75% 30.07 in 10.0 mi East 15.0 mph 18.4 mph 0.07 in Rain Light Rain
9:15 PM 78.8 °F - 71.1 °F 77% 30.07 in 10.0 mi ENE 6.9 mph 10.4 mph N/A   Scattered Clouds
9:35 PM 77.0 °F - 71.4 °F 83% 30.08 in 10.0 mi ENE 6.9 mph - N/A Thunderstorm Thunderstorm
9:55 PM 77.7 °F - 71.2 °F 80% 30.08 in 10.0 mi SE 5.8 mph - N/A Thunderstorm Thunderstorm
10:15 PM 78.8 °F - 70.0 °F 74% 30.09 in 10.0 mi SSE 10.4 mph - N/A   Scattered Clouds
10:35 PM 79.5 °F - 69.1 °F 70% 30.07 in 10.0 mi SSE 10.4 mph - N/A   Scattered Clouds
10:55 PM 78.8 °F - 68.5 °F 71% 30.06 in 10.0 mi SSE 4.6 mph - N/A   Clear
11:15 PM 78.3 °F - 70.5 °F 77% 30.06 in 10.0 mi WSW 3.5 mph - N/A   Clear
11:35 PM 77.7 °F - 70.9 °F 79% 30.06 in 10.0 mi SW 4.6 mph - N/A   Clear
11:55 PM 77.7 °F - 71.1 °F 80% 30.05 in 10.0 mi SSE 4.6 mph - N/A   Clear